Back to catalog

STARLINK-35022

AliveCommunicationsVLEO
NORAD 65409·PAYLOAD·🇺🇸 United States

Launched Aug 31, 2025 from Cape Canaveral Space Force Station

Loading…

Next Passes (next 24 hours)

TLE

FreshSource: CelesTrak SupGP

Epoch: Sep 15, 2026, 03:38 UTC

1 65409C 25192F   26258.15187500 -.00025026  00000+0 -80490-3 0  2581
2 65409  53.1590  70.6898 0001265  87.1118 311.0483 15.31709207    13

Track STARLINK-35022 in real time with AllMySat

Download on the App Store